Location: Arthez
(43.0833°N, 0.2500°W)
Time: 06:22:40
(UTC+00:00)

Cosmos 304 Rocket - Pass Details

Date: 31 May 2022
Orbit: 679 x 686 km, 74.0° (Epoch: 03 July)

Event Time Altitude Azimuth Distance (km) Brightness Sun altitude
Exits shadow 01:04:48 27° 273° (W) 1,319 5.1 -23.3°
Maximum altitude 01:05:59 30° 299° (WNW) 1,227 5.1 -23.2°
Drops below altitude 10° 01:10:14 10° 1° (N) 2,143 7.3 -23.0°
Sets 01:12:48 0° 12° (NNE) 3,063 8.6 -22.8°
